Kuchera_Ratio
0.0 0.0 0.0 0.0 0.0 0.0 0.0 0.0 0.0 0.0 0.0 0.0 0.0 0.0 0.0 0.0 0.0 0.0 0.0 0.0 0.0 0.0 0.0 0.0 0.0 0.0 0.0
0.0 0.0 0.0 0.0 0.0 0.0 0.0 0.0 0.0 0.0 0.0 0.0 0.0 0.0 0.0 0.0 0.0 0.0 0.0 0.0 0.0 0.0 0.0 0.0 0.0 0.0 0.0
1.3 0.0 0.0 0.0 0.0 0.0 0.0 0.0 0.0 0.0 0.0 0.0 0.0 0.0 0.0 0.0 0.0 0.0 0.0 0.0 0.0 0.0 0.0 0.0 0.0 0.0 0.0
1.5 0.8 0.0 0.0 0.0 0.3 0.0 0.0 0.0 0.0 0.0 0.0 0.0 0.0 0.0 0.0 0.0 0.0 0.0 0.0 0.0 0.0 0.0 0.0 0.0 0.0 0.0
1.8 1.4 1.0 0.6 1.3 0.0 1.5 0.0 0.0 0.0 0.0 0.0 0.0 0.0 0.0 0.0 0.0 0.0 0.0 0.0 0.0 0.0 0.0 0.0 0.0 0.0 0.0
2.3 3.6 1.8 0.9 0.0 1.5 2.2 3.6 6.5 0.0 0.0 0.0 0.0 0.0 0.0 0.0 0.0 0.0 0.0 0.0 0.0 0.0 0.0 0.0 0.0 0.0 0.0
2.3 1.9 2.3 0.1 0.2 2.5 2.0 2.9 3.7 0.0 0.0 3.0 0.0 0.0 0.0 0.0 0.0 0.0 0.0 0.0 0.0 0.0 0.0 0.0 0.0 0.0 0.0
0.0 0.2 0.0 0.0 0.0 0.9 2.4 3.2 2.4 0.1 0.0 7.9 0.0 0.6 0.0 0.0 0.0 0.0 0.0 0.0 0.0 0.0 0.0 0.0 0.0 0.0 0.0
0.0 0.0 0.0 0.0 0.0 0.0 4.1 6.0 7.6 3.3 0.0 4.9 2.3 3.0 0.5 0.2 0.0 0.0 0.0 0.0 0.0 0.0 0.0 0.0 0.0 0.0 0.0
0.0 0.0 0.0 0.0 0.0 0.0 2.5 8.1 7.5 9.4 0.4 6.4 4.8 5.7 9.0 1.2 0.8 0.0 0.0 0.0 0.0 0.0 0.0 0.0 0.0 0.5 1.0
2.4 1.7 1.6 1.5 0.8 0.5 1.4 5.0 9.0 9.6 1.0 4.3 8.6 7.4 8.9 8.7 4.2 2.2 1.2 1.7 0.9 0.0 0.0 0.0 0.0 0.0 3.6
6.0 5.7 5.4 5.2 4.2 3.3 2.9 3.5 3.0 5.3 2.1 3.2 9.5 10.0 10.9 12.2 12.1 4.9 3.8 2.5 1.8 3.5 2.9 1.2 0.3 0.0 0.0
8.7 8.0 6.4 5.5 6.3 6.6 6.0 5.7 7.4 6.2 4.0 6.7 8.9 9.4 12.1 13.7 13.5 11.8 9.3 5.8 4.0 5.8 4.5 4.4 4.7 3.5 5.6
10.0 9.3 8.0 8.1 9.0 7.1 8.4 7.4 9.3 8.3 7.0 8.0 8.4 11.9 13.1 12.4 11.6 12.8 8.8 11.5 5.8 6.0 4.8 4.6 2.6 2.0 2.6
10.1 10.5 10.1 9.9 9.8 8.2 8.9 9.2 12.2 12.0 11.0 8.0 8.1 9.7 11.1 12.6 13.5 9.7 9.2 8.9 6.9 6.8 7.3 8.0 5.2 3.5 2.6
11.2 12.2 12.5 12.4 11.9 9.3 9.5 12.4 12.8 12.2 12.1 10.3 12.4 12.6 10.7 8.3 8.1 11.4 9.0 8.7 7.2 7.1 8.0 10.1 9.4 4.7 2.5
12.1 12.4 12.4 11.4 11.5 12.4 12.2 12.5 13.0 12.2 12.0 11.9 13.6 14.2 14.7 15.2 8.5 4.4 10.1 9.4 9.5 9.9 7.8 8.7 11.4 8.1 4.2